Sant Hilari Sacalm-Els Cortals (La Selva)





Hora UTC 19:10
Temperatura 3.9 ºC
Humedad 64.0 %
Presión 999.8 hPa
Pluja 0.0 mm
Velocidad viento 8.0 km/h
Dirección viento W

Datos diarios 2024-02-23



Hora UTC (invierno +1h; verano +2h)
Temperatura (ºC) Humedad (%) Presión (hPa) Velocidad viento (km/h) Precipitación (mm)
Hora UTC Aire Humedad Presión Vel. Dir. Vel. Max Dir. Intent. máx 5 min.
00:05 7.1 91.0 997.1 0.0 E 0.0 0.0
00:10 7.1 91.0 997.2 3.2 ESE 8.0 0.0
00:15 7.0 91.0 997.3 0.0 E 11.3 0.0
00:20 7.0 91.0 997.4 0.0 SE 8.0 0.0
00:25 6.9 91.0 997.5 8.0 SSE 9.7 0.0
00:30 6.9 91.0 997.3 9.7 SSW 12.9 0.0
00:35 6.9 91.0 997.2 6.4 E 12.9 0.0
00:40 6.9 91.0 997.3 6.4 SSW 12.9 0.0
00:45 6.9 91.0 997.0 3.2 S 14.5 0.0
00:50 6.9 91.0 997.0 0.0 SSE 9.7 0.0
00:55 6.9 91.0 997.2 0.0 SSE 8.0 0.0
01:00 6.8 91.0 996.9 3.2 ESE 9.7 0.0
01:05 6.7 91.0 996.7 8.0 ESE 9.7 0.0
01:10 6.7 91.0 996.7 1.6 SE 9.7 0.0
01:15 6.6 91.0 996.7 0.0 SE 8.0 0.0
01:20 6.6 91.0 996.6 1.6 SE 9.7 0.0
01:25 6.5 91.0 996.8 0.0 E 9.7 0.0
01:30 6.5 91.0 997.1 3.2 SSE 8.0 0.0
01:35 6.5 90.0 997.2 0.0 ESE 3.2 0.0
01:40 6.5 90.0 997.1 0.0 ENE 6.4 0.0
01:45 6.6 90.0 997.1 8.0 SSW 11.3 0.0
01:50 6.7 90.0 997.0 1.6 SSW 11.3 0.0
01:55 6.7 90.0 996.8 0.0 S 12.9 0.0
02:00 6.6 90.0 996.5 3.2 S 12.9 0.0
02:05 6.6 91.0 996.5 6.4 SSW 9.7 0.0
02:10 6.5 90.0 996.7 1.6 SSW 11.3 0.0
02:15 6.4 90.0 996.5 3.2 SSE 11.3 0.0
02:20 6.4 90.0 996.2 6.4 SSW 9.7 0.0
02:25 6.3 90.0 996.1 3.2 S 11.3 0.0
02:30 6.3 90.0 995.9 0.0 S 14.5 0.0
02:35 6.2 90.0 996.2 8.0 SW 14.5 0.0
02:40 6.1 90.0 996.2 0.0 SE 9.7 0.0
02:45 6.1 90.0 996.0 3.2 SSW 6.4 0.0
02:50 6.0 90.0 995.9 0.0 SE 9.7 0.0
02:55 5.9 90.0 996.1 9.7 SSW 12.9 0.0
03:00 5.9 90.0 996.0 0.0 WNW 12.9 0.0
03:05 5.8 90.0 995.9 1.6 WSW 12.9 0.0
03:10 5.7 90.0 996.1 11.3 SW 11.3 0.0
03:15 5.5 91.0 996.0 0.0 SW 11.3 0.0
03:20 5.3 90.0 996.2 1.6 W 3.2 0.0
03:25 5.3 90.0 996.0 0.0 WSW 3.2 0.0
03:30 5.2 90.0 995.9 0.0 WSW 0.0 0.0
03:35 5.2 90.0 995.8 0.0 WSW 0.0 0.0
03:40 5.2 90.0 995.9 0.0 WSW 0.0 0.0
03:45 5.1 90.0 995.9 1.6 W 6.4 0.0
03:50 5.1 90.0 996.0 0.0 WSW 6.4 0.0
03:55 5.1 90.0 996.1 0.0 WSW 0.0 0.0
04:00 5.0 90.0 996.1 0.0 WSW 0.0 0.0
04:05 4.9 90.0 996.1 3.2 SW 6.4 0.0
04:10 4.8 90.0 996.1 3.2 SW 8.0 0.0
04:15 4.7 90.0 996.1 0.0 SSW 8.0 0.0
04:20 4.7 90.0 996.0 0.0 SSW 6.4 0.0
04:25 4.6 90.0 996.0 0.0 S 8.0 0.0
04:30 4.5 90.0 996.1 0.0 SW 8.0 0.0
04:35 4.3 90.0 996.2 8.0 SSW 11.3 0.0
04:40 4.2 90.0 996.1 0.0 NNE 11.3 0.0
04:45 4.1 90.0 996.2 6.4 SW 6.4 0.0
04:50 4.1 90.0 996.3 0.0 SW 4.8 0.0
04:55 4.1 90.0 996.3 3.2 S 8.0 0.0
05:00 3.9 90.0 996.3 0.0 ESE 8.0 0.0
05:05 3.8 90.0 996.2 0.0 SE 6.4 0.0
05:10 3.7 90.0 996.2 0.0 SE 6.4 0.0
05:15 3.7 90.0 996.3 1.6 SE 3.2 0.0
05:20 3.6 90.0 996.2 0.0 ESE 6.4 0.0
05:25 3.4 91.0 996.2 0.0 ESE 6.4 0.0
05:30 3.3 90.0 996.2 0.0 ESE 0.0 0.0
05:35 3.2 90.0 996.1 6.4 SW 8.0 0.0
05:40 3.0 91.0 996.1 8.0 SW 8.0 0.0
05:45 2.9 90.0 996.2 0.0 WSW 9.7 0.0
05:50 2.8 90.0 996.3 0.0 WSW 9.7 0.0
05:55 2.8 90.0 996.3 0.0 WSW 3.2 0.0
06:00 2.7 90.0 996.3 0.0 WSW 3.2 0.0
06:05 2.7 90.0 996.5 0.0 WSW 3.2 0.0
06:10 2.6 90.0 996.3 0.0 WSW 3.2 0.0
06:15 2.6 90.0 996.4 1.6 SW 3.2 0.0
06:20 2.4 90.0 996.5 0.0 SW 3.2 0.0
06:25 2.3 90.0 996.6 0.0 SW 3.2 0.0
06:30 2.2 90.0 996.7 1.6 SW 3.2 0.0
06:35 2.1 91.0 996.9 0.0 W 3.2 0.0
06:40 1.9 90.0 997.0 1.6 W 8.0 0.0
06:45 1.8 90.0 997.1 1.6 SW 8.0 0.0
06:50 1.7 91.0 997.1 1.6 SSE 6.4 0.0
06:55 1.7 91.0 997.1 1.6 SSE 8.0 0.0
07:00 1.8 90.0 997.2 1.6 SSW 8.0 0.0
07:05 1.8 90.0 997.2 0.0 SSW 3.2 0.0
07:10 1.7 90.0 997.4 0.0 SSW 0.0 0.0
07:15 1.8 90.0 997.3 0.0 WSW 4.8 0.0
07:20 1.8 90.0 997.4 0.0 WSW 6.4 0.0
07:25 1.8 90.0 997.3 3.2 SSW 8.0 0.0
07:30 1.7 90.0 997.4 6.4 E 8.0 0.0
07:35 1.8 90.0 997.5 0.0 E 6.4 0.0
07:40 1.8 90.0 997.6 0.0 E 1.6 0.0
07:45 1.8 90.0 997.7 0.0 E 0.0 0.0
07:50 1.9 90.0 997.8 0.0 E 0.0 0.0
07:55 2.0 90.0 997.9 0.0 W 0.0 0.0
08:00 2.0 90.0 997.9 0.0 W 0.0 0.0
08:05 1.9 90.0 997.9 0.0 WSW 1.6 0.0
08:10 2.0 90.0 997.9 0.0 W 0.0 0.0
08:15 2.0 90.0 998.0 0.0 W 0.0 0.0
08:20 2.1 90.0 997.9 1.6 WSW 4.8 0.0
08:25 2.1 90.0 997.9 0.0 WSW 6.4 0.0
08:30 2.2 90.0 998.2 0.0 WSW 3.2 0.0
08:35 2.3 90.0 998.2 0.0 SW 6.4 0.0
08:40 2.4 90.0 998.3 0.0 SW 6.4 0.0
08:45 2.4 90.0 998.5 8.0 SW 8.0 0.0
08:50 2.4 90.0 998.5 0.0 SSW 8.0 0.0
08:55 2.4 90.0 998.7 6.4 SSW 11.3 0.0
09:00 2.4 90.0 998.5 4.8 SW 11.3 0.0
09:05 2.7 90.0 998.5 1.6 S 8.0 0.0
09:10 3.0 90.0 998.4 3.2 SSW 9.7 0.0
09:15 3.1 90.0 998.4 3.2 WSW 19.3 0.0
09:20 3.4 90.0 998.6 3.2 WSW 11.3 0.0
09:25 3.6 90.0 998.5 6.4 W 19.3 0.0
09:30 3.7 91.0 998.4 9.7 SW 19.3 0.0
09:35 4.1 91.0 998.7 9.7 SW 12.9 0.0
09:40 4.2 91.0 998.8 8.0 WSW 12.9 0.0
09:45 4.4 91.0 998.8 8.0 SSW 12.9 0.0
09:50 4.6 91.0 998.7 6.4 WSW 25.7 0.0
09:55 4.7 90.0 998.9 8.0 WNW 25.7 0.0
10:00 4.9 89.0 999.0 8.0 W 16.1 0.0
10:05 4.9 87.0 999.0 11.3 WSW 17.7 0.0
10:10 4.9 86.0 999.1 8.0 SW 17.7 0.0
10:15 5.0 85.0 999.0 8.0 WNW 14.5 0.0
10:20 5.1 84.0 999.1 8.0 SW 22.5 0.0
10:25 5.3 83.0 999.0 6.4 SW 22.5 0.0
10:30 5.4 82.0 999.1 6.4 W 20.9 0.0
10:35 5.6 82.0 999.4 3.2 S 20.9 0.0
10:40 5.7 80.0 999.3 8.0 WSW 17.7 0.0
10:45 5.7 79.0 999.1 8.0 W 12.9 0.0
10:50 5.9 78.0 999.1 8.0 WNW 12.9 0.0
10:55 6.2 76.0 999.2 8.0 WNW 12.9 0.0
11:00 6.4 75.0 999.3 8.0 S 12.9 0.0
11:05 6.3 72.0 999.4 6.4 SSW 24.1 0.0
11:10 6.3 71.0 999.2 3.2 WSW 24.1 0.0
11:15 6.3 71.0 999.1 1.6 WNW 20.9 0.0
11:20 6.7 69.0 999.0 8.0 WSW 16.1 0.0
11:25 6.7 67.0 999.1 14.5 S 19.3 0.0
11:30 6.8 66.0 999.0 4.8 W 24.1 0.0
11:35 6.6 65.0 999.0 6.4 SW 22.5 0.0
11:40 6.7 63.0 998.9 4.8 SW 25.7 0.0
11:45 6.8 62.0 999.0 8.0 SE 30.6 0.0
11:50 7.4 64.0 998.9 12.9 E 30.6 0.0
11:55 7.4 61.0 999.0 16.1 S 30.6 0.0
12:00 7.1 61.0 998.8 11.3 SW 30.6 0.0
12:05 7.1 62.0 998.7 6.4 W 25.7 0.0
12:10 7.3 60.0 998.7 17.7 W 25.7 0.0
12:15 7.6 61.0 998.8 16.1 SW 25.7 0.0
12:20 7.6 62.0 998.7 12.9 S 30.6 0.0
12:25 7.7 60.0 998.5 12.9 SW 30.6 0.0
12:30 7.4 61.0 998.6 11.3 SSW 38.6 0.0
12:35 7.7 60.0 998.6 9.7 NW 38.6 0.0
12:40 7.4 59.0 998.6 8.0 WNW 30.6 0.0
12:45 7.4 60.0 998.5 9.7 WNW 30.6 0.0
12:50 7.3 60.0 998.5 11.3 WSW 16.1 0.0
12:55 7.5 61.0 998.4 9.7 SW 19.3 0.0
13:00 7.8 60.0 998.4 8.0 SSW 19.3 0.0
13:05 8.1 59.0 998.3 9.7 W 19.3 0.0
13:10 8.3 58.0 998.4 11.3 WSW 17.7 0.0
13:15 8.2 58.0 998.2 1.6 NNW 17.7 0.0
13:20 7.8 59.0 998.2 6.4 WNW 22.5 0.0
13:25 7.5 60.0 998.2 6.4 W 16.1 0.0
13:30 7.4 59.0 998.1 4.8 WSW 16.1 0.0
13:35 7.2 60.0 998.0 6.4 WSW 16.1 0.0
13:40 7.2 59.0 998.0 6.4 WSW 12.9 0.0
13:45 7.3 61.0 997.9 8.0 WNW 16.1 0.0
13:50 8.1 60.0 997.9 11.3 SW 16.1 0.0
13:55 8.4 57.0 998.0 6.4 WNW 14.5 0.0
14:00 8.3 56.0 998.1 4.8 WSW 16.1 0.0
14:05 7.8 57.0 998.2 6.4 WSW 16.1 0.0
14:10 7.3 59.0 998.5 1.6 W 9.7 0.0
14:15 7.2 59.0 998.3 6.4 WSW 11.3 0.0
14:20 7.1 59.0 998.4 1.6 SW 9.7 0.0
14:25 7.3 59.0 998.2 8.0 WSW 9.7 0.0
14:30 7.7 58.0 998.3 1.6 W 14.5 0.0
14:35 7.8 58.0 998.5 8.0 NW 16.1 0.0
14:40 7.7 58.0 998.4 8.0 SW 32.2 0.0
14:45 8.1 58.0 998.4 8.0 WNW 29.0 0.0
14:50 8.1 57.0 998.4 8.0 S 29.0 0.0
14:55 7.9 58.0 998.3 6.4 WSW 29.0 0.0
15:00 8.3 56.0 998.5 3.2 W 24.1 0.0
15:05 8.4 58.0 998.4 9.7 SW 22.5 0.0
15:10 8.3 58.0 998.6 6.4 WNW 20.9 0.0
15:15 8.2 58.0 998.7 3.2 NW 19.3 0.0
15:20 8.3 57.0 998.6 9.7 SW 33.8 0.0
15:25 8.1 57.0 998.5 11.3 WSW 33.8 0.0
15:30 7.8 58.0 998.6 6.4 W 33.8 0.0
15:35 7.8 58.0 998.6 6.4 WNW 33.8 0.0
15:40 7.6 58.0 998.5 12.9 SSW 29.0 0.0
15:45 7.3 59.0 998.6 9.7 W 25.7 0.0
15:50 7.2 59.0 998.6 6.4 WNW 20.9 0.0
15:55 7.2 59.0 998.8 8.0 WNW 20.9 0.0
16:00 7.4 59.0 998.8 4.8 WSW 24.1 0.0
16:05 7.6 58.0 999.0 3.2 SW 24.1 0.0
16:10 7.6 57.0 998.9 8.0 W 19.3 0.0
16:15 7.3 57.0 998.9 16.1 SW 25.7 0.0
16:20 7.2 57.0 998.9 16.1 WSW 19.3 0.0
16:25 7.1 58.0 998.8 8.0 SW 19.3 0.0
16:30 6.9 58.0 998.9 3.2 WSW 20.9 0.0
16:35 6.9 59.0 998.9 6.4 WSW 20.9 0.0
16:40 6.8 57.0 998.6 3.2 W 12.9 0.0
16:45 6.6 57.0 998.8 8.0 W 14.5 0.0
16:50 6.5 57.0 999.2 3.2 W 9.7 0.0
16:55 6.3 58.0 999.1 3.2 WSW 9.7 0.0
17:00 6.2 58.0 999.0 1.6 WNW 9.7 0.0
17:05 6.1 59.0 999.1 1.6 W 12.9 0.0
17:10 5.9 59.0 999.3 1.6 WSW 12.9 0.0
17:15 5.8 59.0 999.4 9.7 W 9.7 0.0
17:20 5.7 59.0 999.3 4.8 WSW 9.7 0.0
17:25 5.6 60.0 999.4 3.2 WNW 12.9 0.0
17:30 5.5 60.0 999.3 1.6 WSW 12.9 0.0
17:35 5.4 61.0 999.5 1.6 W 11.3 0.0
17:40 5.3 61.0 999.5 1.6 WSW 9.7 0.0
17:45 5.2 62.0 999.7 0.0 SW 9.7 0.0
17:50 5.1 62.0 999.8 0.0 NW 4.8 0.0
17:55 4.9 62.0 1000.0 6.4 SW 12.9 0.0
18:00 4.8 62.0 999.9 1.6 W 16.1 0.0
18:05 4.7 62.0 1000.0 6.4 WNW 16.1 0.0
18:10 4.6 62.0 999.9 3.2 WSW 12.9 0.0
18:15 4.6 62.0 1000.0 9.7 WSW 14.5 0.0
18:20 4.5 62.0 1000.1 8.0 WNW 14.5 0.0
18:25 4.4 62.0 1000.0 9.7 WNW 12.9 0.0
18:30 4.4 62.0 999.9 1.6 SE 12.9 0.0
18:35 4.3 63.0 999.9 4.8 W 8.0 0.0
18:40 4.2 63.0 1000.0 3.2 WSW 8.0 0.0
18:45 4.2 63.0 999.9 3.2 W 8.0 0.0
18:50 4.1 63.0 999.9 3.2 WNW 8.0 0.0
18:55 4.0 64.0 1000.0 3.2 WSW 9.7 0.0
19:00 4.0 64.0 1000.0 12.9 WSW 12.9 0.0
19:05 3.9 64.0 999.9 6.4 W 12.9 0.0
19:10 3.9 64.0 999.8 8.0 W 11.3 0.0
Máxima 8.5 91.0 1000.1 17.7 W 38.6 0.0
Mínima 1.7 56.0 995.8
Total 0.0